[Iaude] MPEC N102: 2024 NH2 [a=1.90,e=0.69,i=13.1,H=18.5]
    mpec at cfa.harvard.edu 
    mpec at cfa.harvard.edu
       
    Mon Jul  8 13:02:55 EDT 2024
    
    
  
M.P.E.C. 2024-N102                                 Issued 2024 July 8, 16:59 UT
     The Minor Planet Electronic Circulars contain information on unusual
         minor planets, routine data on comets and natural satellites,
         and occasional editorial announcements.  They are published
    on behalf of Division F of the International Astronomical Union by the
          Minor Planet Center, Smithsonian Astrophysical Observatory,
                          Cambridge, MA 02138, U.S.A.
			  
             Prepared using the Tamkin Foundation Computer Network
                              MPC at CFA.HARVARD.EDU
            URL https://www.minorplanetcenter.net/    ISSN 1523-6714
                                    2024 NH2                                    
Observations:
     K24N02H* C2024 07 03.55100123 51 56.910+15 53 24.05         21.84wXEN102F52
     K24N02H  C2024 07 03.56348623 51 58.140+15 53 41.61         21.85wXEN102F52
     K24N02H  C2024 07 03.57596123 51 59.367+15 53 59.64         21.62wXEN102F52
     K24N02H  C2024 07 03.58847623 52 00.597+15 54 17.50         22.01wXEN102F52
     K24N02H 3C2024 07 05.56994223 55 22.632+16 41 54.30         21.49GVEN102T14
     K24N02H 3C2024 07 05.57092123 55 22.730+16 41 55.73         21.45GVEN102T14
     K24N02H 3C2024 07 05.57189723 55 22.829+16 41 57.19         21.50GVEN102T14
     K24N02H  C2024 07 06.57750523 57 06.937+17 06 40.57         21.07GVEN102F51
     K24N02H  C2024 07 06.58022223 57 07.194+17 06 44.31         20.86GVEN102F51
     K24N02H !C2024 07 07.46535 23 58 39.77 +17 28 48.1          20.2 GVEN102673
     K24N02H !C2024 07 07.46865 23 58 40.18 +17 28 52.9                VEN102673
Observer details:
673 Table Mountain Observatory, Wrightwood.  Observer J. Pittichova.  1.0-m
    f/15 reflector + CCD.
F51 Pan-STARRS 1, Haleakala.  Observers J. Herman, T. Lowe, P. Minguez, A.
    Schultz, I. Smith.  Measurers K. Chambers, T. de Boer, J. Fairlamb, H.
    Gao, M. Huber, C.-C. Lin, E. Magnier, Y. Ramanjooloo, R. Wainscoat, R.
    Weryk.  1.8-m Ritchey-Chretien + CCD.
F52 Pan-STARRS 2, Haleakala.  Observers J. Herman, T. Lowe, P. Minguez, A.
    Schultz, I. Smith.  Measurers K. Chambers, T. de Boer, J. Fairlamb, H.
    Gao, M. Huber, C.-C. Lin, E. Magnier, Y. Ramanjooloo, R. Wainscoat, R.
    Weryk.  1.8-m Ritchey-Chretien + CCD.
T14 Canada-France-Hawaii Telescope, Maunakea.  Observers R. Wainscoat, H.
    Januszewski, H. Flewelling.  Measurers R. Weryk, R. Wainscoat.  3.6-m
    f/4.1 reflector + CCD.
Orbital elements:
2024 NH2                                                 Earth MOID = 0.2244 AU
Epoch 2024 Mar. 31.0 TT = JDT 2460400.5                 MPC                     
M 282.06104              (2000.0)            P               Q                  
n   0.37580061     Peri.  186.08732     -0.08922633     -0.96983515             
a   1.9017980      Node   269.19085     +0.92312564     +0.00499765             
e   0.6891002      Incl.   13.11270     +0.37400230     -0.24371050             
P   2.62           H   18.52          G   0.15           U   9                  
Residuals in seconds of arc
240703 F52  0.0   0.0     240705 T14  0.0   0.0     240706 F51  0.1-  0.2-
240703 F52  0.0   0.2-    240705 T14  0.0   0.0     240707 673  0.5-  0.3+
240703 F52  0.0   0.1+    240705 T14  0.0   0.0     240707 673  0.6+  0.0
240703 F52  0.0   0.1+    240706 F51  0.1+  0.1+
Ephemeris:
2024 NH2                 a,e,i = 1.90, 0.69, 13                  q = 0.5913
Date    TT    R. A. (2000) Decl.     Delta      r    Elong.  Phase     V
2024 06 08    23 12 28.6 +07 20 35   1.7303  1.9357    85.5    31.5    22.5
...
2024 06 23    23 34 56.9 +12 01 34   1.4474  1.8046    92.5    34.2    22.0
...
2024 07 01    23 47 42.2 +14 54 10   1.3008  1.7310    95.9    35.7    21.7
...
2024 07 07    23 57 50.7 +17 17 10   1.1937  1.6741    98.1    37.0    21.5
2024 07 08    23 59 35.9 +17 42 18   1.1761  1.6645    98.5    37.2    21.5
2024 07 09    00 01 22.4 +18 07 51   1.1586  1.6548    98.8    37.4    21.4
...
2024 07 15    00 12 32.0 +20 50 23   1.0556  1.5958   100.7    38.7    21.2
...
2024 07 23    00 29 18.4 +24 56 23   0.9241  1.5147   102.6    40.9    20.9
...
2024 08 07    01 12 03.0 +34 40 47   0.7008  1.3551   102.9    46.9    20.2
A. U. Tomatic                (C) Copyright 2024 MPC           M.P.E.C. 2024-N102
    
    
More information about the Iaude
mailing list